CZ-2C R/B - Orbit

View from above orbital plane
View from above orbital plane
View from above satellite
View from above satellite

Ground track
Ground track

The orbit data is extracted from the following two-line orbital elements,

1 36089U 09061B   13169.18423361  .00000101  00000-0  37386-4 0   725
2 36089 098.1512 210.3133 0082584 215.6382 190.6950 14.48913629190233
Epoch (UTC): 18 June 2013 04:25:17
Eccentricity: 0.0082584
inclination: 98.1512°
perigee height: 670 km
apogee height: 788 km
right ascension of ascending node: 210.3133°
argument of perigee: 215.6382°
revolutions per day: 14.48913629
mean anomaly at epoch: 190.6950°
orbit number at epoch: 19023

The dashed part of the orbit path shows where the satellite is in the earth's shadow,  

Developed and maintained by Chris Peat, Heavens-Above GmbH. Please read the updated FAQ before sending e-mail. Imprint. DLR